Regional Weather Roundup
Issued by NWS Sioux Falls, SD

Home | Current Version | Previous Version | Graphics & Text | Print | Product List | Glossary Off
Versions: 1 2 3 4 5 6 7 8 9 10 11 12 13 14 15 16 17 18 19 20 21 22 23 24 25 26 27 28 29 30 31 32 33 34 35 36 37 38 39 40 41 42 43 44 45 46 47 48 49 50

000
ASUS43 KFSD 242302
RWRFSD

WEATHER ROUNDUP FOR SE SOUTH DAKOTA/SW MINNESOTA/NW IOWA
NATIONAL WEATHER SERVICE SIOUX FALLS SD
500 PM CST WED DEC 24 2014

NOTE: "FAIR" INDICATES FEW OR NO CLOUDS BELOW 12,000 FEET WITH NO
SIGNIFICANT WEATHER AND OR OBSTRUCTIONS TO VISIBILITY.


SDZ038>040-050-052>070-250000-
SOUTHEAST SOUTH DAKOTA

CITY           SKY/WX    TMP DP  RH WIND       PRES   REMARKS
CHAMBERLAIN    NOT AVBL
HURON          CLOUDY    28  25  88 S12       29.62F WCI  18
MADISON        CLOUDY    25  25 100 SW9       29.63S FOG     WCI  15
MITCHELL       PTCLDY    29  26  89 S9        29.65F WCI  20
SIOUX FALLS    CLOUDY    26  23  88 SW6       29.67F FOG     WCI  19
WINNER         FAIR      34  23  64 S9        29.55F WCI  27
YANKTON        PTCLDY    28  25  86 S7        29.70F WCI  21
$$

MNZ071-072-080-081-089-090-097-098-250000-
SOUTHWEST MINNESOTA

CITY           SKY/WX    TMP DP  RH WIND       PRES   REMARKS
FAIRMONT       CLOUDY    30  27  86 NW6       29.66F WCI  24
JACKSON        CLOUDY    32  28  86 W9        29.66F WCI  24
LUVERNE        CLOUDY    28  27  93 W6        29.67F FOG     WCI  22
MARSHALL       CLOUDY    28  23  80 W10       29.65S WCI  19
MONTEVIDEO     CLOUDY    28  28 100 W6        29.64F WCI  22
PIPESTONE      FOG       25  25 100 W7        29.64F VSB 1/4 WCI  17
REDWOOD FALLS  CLOUDY    31  28  89 W6        29.65F WCI  25
TRACY          CLOUDY    29  27  94 SW7       29.65S WCI  22
WINDOM         CLOUDY    30  28  93 CALM      29.65F
WORTHINGTON    CLOUDY    27 -20  12 SW12      29.66F WCI  16
$$

IAZ001>003-012>014-020>022-031-032-NEZ013-014-SDZ071-250000-
NORTHWEST IOWA

CITY           SKY/WX    TMP DP  RH WIND       PRES   REMARKS
DENISON        CLOUDY    28  28 100 W8        29.72F FOG     WCI  20
ESTHERVILLE    CLOUDY    30  27  88 W8        29.66  WCI  22
SIOUX CITY     CLOUDY    29  25  85 W7        29.73F WCI  22
SPENCER        CLOUDY    29  26  89 W13       29.68F WCI  19
$$

ABBREVIATIONS USED IN REMARKS
   TC - TEMPERATURE IN CELSIUS
  WCI - WIND CHILL INDEX
   HX - HEAT INDEX
  VSB - VISIBILITY




USA.gov is the U.S. government's official web portal to all federal, state and local government web resources and services.